This is the latest recevied weather packets stored in our database for station/object SR2GKG-13. If no packets are shown the sender has not sent any weather packets the latest 10 day(s).
| Time | Temp. | Humidity | Pressure | Rain* | Wind** | Luminosity | Snow |
|---|---|---|---|---|---|---|---|
| 1777749843 | 16.67° C | 40% | 1006.3 hPa | - | - | - | - |
| 1777748943 | 17.22° C | 39% | 1006.4 hPa | - | - | - | - |
| 1777747143 | 18.33° C | 37% | 1006.4 hPa | - | - | - | - |
| 1777746243 | 18.89° C | 36% | 1006.2 hPa | - | - | - | - |
| 1777745343 | 19.44° C | 34% | 1006.2 hPa | - | - | - | - |
| 1777744446 | 20.56° C | 32% | 1006.1 hPa | - | - | - | - |
| 1777743542 | 21.11° C | 31% | 1006.1 hPa | - | - | - | - |
| 1777741742 | 22.78° C | 27% | 1006.3 hPa | - | - | - | - |
| 1777739942 | 23.89° C | 25% | 1006.5 hPa | - | - | - | - |
| 1777739042 | 24.44° C | 25% | 1006.5 hPa | - | - | - | - |
| 1777738142 | 24.44° C | 25% | 1006.6 hPa | - | - | - | - |
| 1777737242 | 25° C | 24% | 1006.9 hPa | - | - | - | - |
| 1777736342 | 25.56° C | 23% | 1007.1 hPa | - | - | - | - |
| 1777735441 | 26.11° C | 23% | 1007.3 hPa | - | - | - | - |
| 1777734541 | 26.67° C | 21% | 1007.3 hPa | - | - | - | - |
| 1777733640 | 26.67° C | 21% | 1007.5 hPa | - | - | - | - |
| 1777732740 | 26.67° C | 21% | 1007.7 hPa | - | - | - | - |
| 1777731840 | 26.67° C | 21% | 1007.8 hPa | - | - | - | - |
| 1777730940 | 28.33° C | 20% | 1007.9 hPa | - | - | - | - |
| 1777730040 | 27.78° C | 21% | 1008.1 hPa | - | - | - | - |
| 1777729140 | 28.33° C | 22% | 1008.2 hPa | - | - | - | - |
| 1777728240 | 27.78° C | 22% | 1008.3 hPa | - | - | - | - |
| 1777727340 | 28.33° C | 22% | 1008.6 hPa | - | - | - | - |
| 1777725539 | 27.22° C | 22% | 1009 hPa | - | - | - | - |
| 1777723739 | 27.22° C | 23% | 1009.5 hPa | - | - | - | - |
* Rain since midnight (hover to see other rain measurements)
** Current wind speed in m/s (hover to see current wind gust speed)